Location: Rounton
(54.4000°N, 1.3500°W)
Time: 02:05:14
(UTC+00:00)

Vanguard 3 - Pass Details

Date: 30 November 2021
Orbit: 508 x 3260 km, 33.3° (Epoch: 19 January)

Event Time Altitude Azimuth Distance (km) Brightness Sun altitude
Rises 07:04:56 0° 246° (WSW) 7,090 11.6 -7.8°
Reaches altitude 10° 07:10:54 10° 238° (WSW) 5,825 11.2 -7.0°
Maximum altitude 07:23:59 29° 188° (S) 3,582 10.7 -5.4°
Drops below altitude 10° 07:33:03 10° 134° (SE) 3,974 12.4 -4.3°
Sets 07:36:12 0° 123° (ESE) 4,594 14.4 -3.9°
